QPF
0.00 0.00 0.00 0.00 0.01 0.03 0.04 0.05 0.05 0.06 0.04 0.03 0.02 0.02 0.03 0.03 0.03 0.02 0.02 0.04 0.04 0.04 0.03 0.02 0.02 0.03 0.03 0.04 0.04 0.05 0.07 0.08 0.08 0.09 0.08 0.06 0.07 0.09 0.08 0.08 0.08 0.06 0.06
0.00 0.00 0.00 0.00 0.01 0.01 0.02 0.03 0.04 0.03 0.02 0.02 0.02 0.02 0.02 0.02 0.02 0.02 0.02 0.02 0.04 0.03 0.02 0.03 0.02 0.02 0.02 0.03 0.03 0.05 0.07 0.07 0.06 0.07 0.05 0.05 0.07 0.08 0.09 0.10 0.11 0.10 0.07
0.00 0.00 0.00 0.00 0.00 0.01 0.01 0.02 0.02 0.02 0.02 0.01 0.01 0.02 0.01 0.02 0.03 0.02 0.03 0.02 0.03 0.03 0.03 0.04 0.03 0.02 0.01 0.02 0.03 0.04 0.05 0.05 0.05 0.06 0.04 0.03 0.04 0.06 0.09 0.07 0.06 0.07 0.07
0.00 0.00 0.00 0.00 0.00 0.00 0.00 0.01 0.01 0.01 0.02 0.01 0.01 0.01 0.01 0.01 0.01 0.02 0.02 0.03 0.03 0.03 0.04 0.03 0.03 0.02 0.02 0.02 0.04 0.04 0.05 0.04 0.03 0.04 0.04 0.04 0.03 0.05 0.06 0.07 0.05 0.03 0.03
0.00 0.00 0.00 0.00 0.00 0.00 0.00 0.00 0.01 0.01 0.02 0.01 0.02 0.02 0.02 0.02 0.01 0.02 0.02 0.03 0.03 0.04 0.04 0.03 0.02 0.01 0.02 0.02 0.03 0.03 0.03 0.02 0.02 0.02 0.03 0.04 0.04 0.05 0.04 0.04 0.05 0.05 0.03
0.00 0.00 0.01 0.01 0.01 0.01 0.01 0.02 0.01 0.02 0.02 0.01 0.02 0.02 0.02 0.02 0.03 0.03 0.02 0.03 0.04 0.06 0.07 0.04 0.02 0.01 0.01 0.02 0.02 0.03 0.03 0.03 0.02 0.02 0.02 0.03 0.03 0.03 0.03 0.03 0.03 0.03 0.02
0.01 0.01 0.02 0.05 0.03 0.03 0.04 0.04 0.03 0.02 0.01 0.01 0.02 0.02 0.02 0.01 0.01 0.02 0.03 0.03 0.06 0.09 0.07 0.04 0.02 0.01 0.01 0.01 0.01 0.02 0.03 0.03 0.02 0.01 0.02 0.03 0.03 0.04 0.03 0.02 0.02 0.02 0.02
0.01 0.01 0.03 0.05 0.02 0.02 0.02 0.02 0.02 0.01 0.01 0.02 0.04 0.03 0.02 0.01 0.01 0.01 0.02 0.03 0.04 0.05 0.05 0.04 0.02 0.02 0.01 0.01 0.02 0.02 0.02 0.02 0.03 0.03 0.02 0.02 0.02 0.03 0.03 0.03 0.02 0.02 0.02
0.01 0.01 0.03 0.05 0.03 0.02 0.02 0.02 0.02 0.02 0.01 0.02 0.02 0.01 0.01 0.01 0.01 0.02 0.04 0.04 0.03 0.04 0.05 0.04 0.03 0.02 0.02 0.02 0.03 0.03 0.02 0.02 0.02 0.02 0.03 0.02 0.03 0.03 0.03 0.03 0.03 0.04 0.04
0.01 0.02 0.02 0.02 0.02 0.02 0.03 0.02 0.02 0.01 0.01 0.01 0.01 0.01 0.01 0.01 0.01 0.01 0.02 0.03 0.03 0.03 0.04 0.04 0.04 0.03 0.03 0.04 0.03 0.02 0.02 0.02 0.01 0.01 0.02 0.02 0.03 0.05 0.05 0.04 0.04 0.03 0.03
0.01 0.02 0.03 0.04 0.05 0.05 0.04 0.02 0.02 0.02 0.01 0.01 0.01 0.01 0.01 0.01 0.01 0.01 0.01 0.02 0.03 0.03 0.03 0.03 0.03 0.02 0.03 0.03 0.02 0.02 0.03 0.02 0.02 0.01 0.01 0.02 0.02 0.03 0.04 0.06 0.05 0.03 0.03
0.03 0.05 0.08 0.10 0.07 0.05 0.03 0.03 0.02 0.02 0.02 0.04 0.03 0.01 0.01 0.01 0.01 0.01 0.01 0.02 0.02 0.03 0.03 0.03 0.03 0.02 0.03 0.04 0.03 0.03 0.03 0.04 0.03 0.03 0.02 0.02 0.03 0.06 0.05 0.06 0.07 0.04 0.03
0.03 0.06 0.08 0.08 0.05 0.03 0.02 0.03 0.05 0.04 0.05 0.05 0.03 0.01 0.01 0.02 0.01 0.02 0.02 0.02 0.03 0.03 0.03 0.04 0.03 0.04 0.04 0.04 0.04 0.05 0.05 0.05 0.04 0.04 0.03 0.02 0.02 0.05 0.06 0.04 0.03 0.03 0.04
0.02 0.04 0.04 0.05 0.05 0.05 0.05 0.05 0.06 0.03 0.02 0.03 0.02 0.02 0.03 0.03 0.04 0.03 0.03 0.03 0.04 0.03 0.03 0.03 0.04 0.04 0.05 0.05 0.06 0.07 0.07 0.07 0.06 0.05 0.05 0.04 0.03 0.02 0.02 0.01 0.01 0.02 0.02
0.02 0.02 0.02 0.03 0.04 0.05 0.06 0.09 0.08 0.03 0.02 0.05 0.04 0.03 0.05 0.06 0.05 0.04 0.04 0.04 0.04 0.04 0.03 0.02 0.02 0.03 0.03 0.04 0.05 0.05 0.06 0.06 0.05 0.04 0.03 0.02 0.01 0.01 0.01 0.00 0.00 0.01 0.01
0.02 0.02 0.03 0.04 0.05 0.05 0.05 0.06 0.05 0.03 0.03 0.04 0.05 0.06 0.05 0.05 0.04 0.04 0.04 0.04 0.03 0.03 0.03 0.02 0.02 0.03 0.03 0.04 0.04 0.03 0.03 0.03 0.04 0.03 0.02 0.01 0.01 0.01 0.01 0.01 0.01 0.01 0.01
0.02 0.03 0.03 0.05 0.07 0.07 0.06 0.05 0.04 0.04 0.04 0.05 0.06 0.06 0.06 0.06 0.06 0.06 0.06 0.05 0.04 0.04 0.04 0.03 0.02 0.02 0.02 0.04 0.03 0.03 0.03 0.02 0.01 0.01 0.01 0.00 0.01 0.01 0.01 0.01 0.02 0.01 0.01
0.04 0.04 0.05 0.06 0.05 0.04 0.04 0.03 0.03 0.03 0.04 0.05 0.05 0.05 0.07 0.07 0.05 0.05 0.05 0.06 0.06 0.05 0.05 0.04 0.04 0.03 0.03 0.05 0.04 0.04 0.04 0.03 0.02 0.02 0.01 0.01 0.02 0.01 0.01 0.01 0.01 0.01 0.01
0.06 0.05 0.05 0.05 0.05 0.03 0.02 0.02 0.02 0.03 0.02 0.03 0.04 0.05 0.05 0.04 0.03 0.03 0.04 0.06 0.07 0.06 0.05 0.04 0.05 0.06 0.07 0.09 0.08 0.07 0.05 0.04 0.05 0.05 0.05 0.04 0.03 0.02 0.01 0.01 0.01 0.01 0.01
0.05 0.06 0.04 0.04 0.03 0.03 0.02 0.02 0.02 0.02 0.02 0.02 0.03 0.02 0.02 0.02 0.01 0.02 0.03 0.03 0.03 0.03 0.04 0.04 0.04 0.06 0.09 0.11 0.10 0.11 0.10 0.09 0.09 0.07 0.05 0.05 0.03 0.02 0.02 0.02 0.02 0.01 0.01
0.03 0.05 0.05 0.03 0.02 0.03 0.03 0.04 0.03 0.02 0.02 0.01 0.01 0.01 0.02 0.02 0.01 0.01 0.01 0.02 0.02 0.02 0.03 0.04 0.04 0.06 0.08 0.10 0.11 0.13 0.12 0.10 0.07 0.05 0.04 0.03 0.03 0.02 0.02 0.01 0.02 0.02 0.02
0.07 0.08 0.05 0.03 0.03 0.02 0.02 0.02 0.03 0.03 0.02 0.01 0.01 0.01 0.01 0.01 0.01 0.01 0.02 0.02 0.03 0.03 0.04 0.04 0.04 0.05 0.06 0.07 0.08 0.08 0.08 0.07 0.07 0.06 0.05 0.03 0.04 0.03 0.03 0.02 0.02 0.03 0.02
0.04 0.06 0.04 0.03 0.03 0.02 0.02 0.02 0.02 0.02 0.02 0.01 0.01 0.01 0.01 0.01 0.01 0.01 0.01 0.01 0.02 0.02 0.02 0.03 0.03 0.03 0.04 0.05 0.05 0.06 0.06 0.06 0.06 0.06 0.05 0.05 0.04 0.03 0.02 0.02 0.02 0.03 0.02
0.02 0.02 0.03 0.03 0.03 0.02 0.02 0.02 0.02 0.02 0.02 0.02 0.02 0.03 0.02 0.02 0.03 0.02 0.02 0.02 0.02 0.02 0.02 0.02 0.02 0.03 0.04 0.04 0.04 0.05 0.05 0.06 0.08 0.09 0.07 0.05 0.04 0.02 0.02 0.02 0.02 0.02 0.02
0.03 0.03 0.02 0.03 0.04 0.03 0.03 0.02 0.02 0.02 0.02 0.03 0.03 0.04 0.03 0.04 0.04 0.04 0.03 0.04 0.04 0.04 0.03 0.03 0.03 0.03 0.02 0.02 0.03 0.04 0.05 0.06 0.07 0.08 0.07 0.05 0.04 0.03 0.02 0.01 0.02 0.02 0.02
0.06 0.04 0.03 0.04 0.05 0.04 0.04 0.03 0.03 0.02 0.02 0.02 0.03 0.03 0.03 0.03 0.04 0.03 0.03 0.04 0.04 0.03 0.03 0.03 0.03 0.02 0.02 0.02 0.02 0.02 0.03 0.04 0.04 0.04 0.04 0.04 0.04 0.03 0.02 0.02 0.02 0.02 0.03
MSLP
1014.50 1014.81 1015.07 1015.21 1015.22 1015.11 1014.95 1014.78 1014.66 1014.62 1014.67 1014.79 1014.94 1015.06 1015.11 1015.07 1014.93 1014.71 1014.45 1014.20 1014.01 1013.90 1013.89 1013.96 1014.10 1014.27 1014.44 1014.58 1014.67 1014.71 1014.71 1014.65 1014.55 1014.41 1014.21 1013.95 1013.63 1013.25 1012.82 1012.36 1011.93 1011.54 1011.25
1014.27 1014.63 1014.92 1015.08 1015.09 1014.97 1014.77 1014.57 1014.43 1014.40 1014.49 1014.67 1014.88 1015.06 1015.16 1015.12 1014.94 1014.66 1014.31 1013.98 1013.70 1013.54 1013.50 1013.58 1013.75 1013.98 1014.20 1014.40 1014.54 1014.62 1014.64 1014.61 1014.54 1014.43 1014.28 1014.07 1013.79 1013.43 1012.99 1012.51 1012.01 1011.53 1011.12
1013.98 1014.39 1014.72 1014.92 1014.94 1014.81 1014.59 1014.36 1014.21 1014.18 1014.29 1014.50 1014.76 1014.98 1015.10 1015.07 1014.87 1014.54 1014.13 1013.72 1013.38 1013.16 1013.09 1013.17 1013.35 1013.60 1013.85 1014.07 1014.23 1014.33 1014.37 1014.37 1014.34 1014.29 1014.20 1014.07 1013.86 1013.56 1013.17 1012.70 1012.17 1011.64 1011.15
1013.69 1014.13 1014.51 1014.75 1014.79 1014.67 1014.44 1014.19 1014.01 1013.97 1014.07 1014.29 1014.56 1014.81 1014.94 1014.92 1014.71 1014.35 1013.90 1013.45 1013.06 1012.79 1012.68 1012.73 1012.89 1013.12 1013.36 1013.57 1013.72 1013.82 1013.86 1013.88 1013.89 1013.90 1013.89 1013.86 1013.75 1013.55 1013.24 1012.81 1012.31 1011.76 1011.22
1013.47 1013.93 1014.35 1014.62 1014.69 1014.58 1014.35 1014.08 1013.87 1013.79 1013.87 1014.07 1014.34 1014.58 1014.72 1014.70 1014.49 1014.13 1013.66 1013.18 1012.75 1012.44 1012.29 1012.29 1012.40 1012.58 1012.77 1012.93 1013.04 1013.11 1013.14 1013.17 1013.21 1013.27 1013.35 1013.41 1013.41 1013.32 1013.11 1012.77 1012.31 1011.79 1011.25
1013.37 1013.85 1014.29 1014.59 1014.69 1014.59 1014.35 1014.06 1013.82 1013.70 1013.73 1013.90 1014.13 1014.36 1014.49 1014.47 1014.27 1013.91 1013.45 1012.95 1012.51 1012.16 1011.96 1011.90 1011.94 1012.04 1012.15 1012.24 1012.28 1012.30 1012.29 1012.31 1012.36 1012.46 1012.60 1012.75 1012.85 1012.87 1012.76 1012.51 1012.13 1011.66 1011.15
1013.46 1013.93 1014.38 1014.70 1014.81 1014.71 1014.47 1014.16 1013.89 1013.72 1013.70 1013.82 1014.01 1014.20 1014.32 1014.29 1014.10 1013.75 1013.30 1012.81 1012.36 1011.99 1011.74 1011.60 1011.57 1011.58 1011.59 1011.59 1011.55 1011.49 1011.44 1011.42 1011.46 1011.57 1011.75 1011.94 1012.11 1012.21 1012.19 1012.03 1011.73 1011.33 1010.88
1013.75 1014.20 1014.64 1014.96 1015.07 1014.98 1014.73 1014.41 1014.10 1013.90 1013.83 1013.88 1014.02 1014.17 1014.25 1014.22 1014.03 1013.70 1013.26 1012.78 1012.33 1011.94 1011.64 1011.45 1011.34 1011.26 1011.18 1011.09 1010.96 1010.82 1010.70 1010.63 1010.63 1010.73 1010.89 1011.10 1011.29 1011.43 1011.47 1011.37 1011.15 1010.83 1010.44
1014.24 1014.66 1015.07 1015.37 1015.47 1015.37 1015.12 1014.79 1014.47 1014.24 1014.12 1014.12 1014.19 1014.29 1014.33 1014.27 1014.08 1013.75 1013.33 1012.87 1012.41 1012.02 1011.70 1011.46 1011.28 1011.12 1010.97 1010.79 1010.59 1010.37 1010.18 1010.04 1009.98 1010.02 1010.14 1010.30 1010.48 1010.62 1010.67 1010.62 1010.45 1010.19 1009.88
1014.87 1015.26 1015.63 1015.88 1015.96 1015.86 1015.61 1015.29 1014.96 1014.71 1014.56 1014.51 1014.53 1014.57 1014.56 1014.46 1014.24 1013.91 1013.50 1013.04 1012.60 1012.19 1011.86 1011.59 1011.37 1011.16 1010.95 1010.71 1010.44 1010.16 1009.89 1009.68 1009.55 1009.50 1009.54 1009.63 1009.74 1009.84 1009.87 1009.82 1009.69 1009.48 1009.24
1015.58 1015.92 1016.23 1016.43 1016.48 1016.37 1016.13 1015.82 1015.51 1015.27 1015.10 1015.02 1014.99 1014.97 1014.90 1014.75 1014.50 1014.14 1013.72 1013.27 1012.83 1012.43 1012.08 1011.80 1011.55 1011.32 1011.07 1010.78 1010.47 1010.13 1009.81 1009.52 1009.30 1009.15 1009.09 1009.08 1009.10 1009.12 1009.11 1009.04 1008.92 1008.76 1008.57
1016.26 1016.55 1016.79 1016.94 1016.94 1016.82 1016.59 1016.31 1016.04 1015.82 1015.66 1015.56 1015.49 1015.41 1015.29 1015.08 1014.77 1014.39 1013.95 1013.48 1013.04 1012.64 1012.30 1012.01 1011.75 1011.50 1011.22 1010.91 1010.56 1010.18 1009.80 1009.45 1009.14 1008.90 1008.73 1008.61 1008.53 1008.46 1008.38 1008.28 1008.16 1008.03 1007.89
1016.84 1017.06 1017.23 1017.31 1017.27 1017.13 1016.92 1016.68 1016.46 1016.28 1016.14 1016.04 1015.95 1015.82 1015.64 1015.37 1015.02 1014.59 1014.12 1013.64 1013.19 1012.79 1012.44 1012.15 1011.87 1011.60 1011.31 1010.98 1010.60 1010.18 1009.76 1009.34 1008.96 1008.63 1008.36 1008.14 1007.96 1007.81 1007.67 1007.54 1007.41 1007.29 1007.19
1017.24 1017.40 1017.49 1017.49 1017.41 1017.26 1017.07 1016.88 1016.71 1016.58 1016.48 1016.39 1016.28 1016.13 1015.89 1015.57 1015.17 1014.70 1014.20 1013.70 1013.24 1012.82 1012.47 1012.15 1011.87 1011.57 1011.25 1010.89 1010.47 1010.03 1009.56 1009.09 1008.65 1008.25 1007.91 1007.61 1007.35 1007.13 1006.94 1006.78 1006.63 1006.52 1006.45
1017.45 1017.54 1017.54 1017.47 1017.35 1017.19 1017.03 1016.88 1016.77 1016.70 1016.63 1016.56 1016.45 1016.27 1015.99 1015.63 1015.19 1014.69 1014.16 1013.65 1013.17 1012.74 1012.36 1012.02 1011.69 1011.36 1011.00 1010.59 1010.14 1009.65 1009.14 1008.64 1008.15 1007.71 1007.31 1006.96 1006.66 1006.40 1006.17 1005.98 1005.83 1005.71 1005.64
1017.46 1017.49 1017.42 1017.29 1017.13 1016.97 1016.83 1016.72 1016.66 1016.63 1016.60 1016.54 1016.43 1016.23 1015.93 1015.54 1015.07 1014.55 1014.01 1013.48 1012.99 1012.54 1012.13 1011.75 1011.38 1010.99 1010.57 1010.10 1009.59 1009.06 1008.51 1007.97 1007.46 1007.00 1006.58 1006.21 1005.89 1005.61 1005.37 1005.16 1004.99 1004.86 1004.79
1017.33 1017.30 1017.18 1017.01 1016.83 1016.66 1016.53 1016.46 1016.43 1016.42 1016.41 1016.36 1016.23 1016.02 1015.71 1015.30 1014.82 1014.29 1013.75 1013.23 1012.73 1012.26 1011.82 1011.40 1010.96 1010.51 1010.01 1009.47 1008.90 1008.31 1007.73 1007.16 1006.64 1006.17 1005.76 1005.40 1005.09 1004.81 1004.56 1004.35 1004.16 1004.01 1003.90
1017.13 1017.07 1016.92 1016.72 1016.52 1016.36 1016.24 1016.18 1016.16 1016.15 1016.13 1016.06 1015.92 1015.69 1015.36 1014.95 1014.47 1013.96 1013.43 1012.92 1012.43 1011.95 1011.49 1011.01 1010.52 1009.98 1009.41 1008.79 1008.15 1007.51 1006.89 1006.31 1005.79 1005.33 1004.94 1004.60 1004.31 1004.05 1003.81 1003.58 1003.37 1003.18 1003.02
1016.94 1016.86 1016.70 1016.51 1016.31 1016.15 1016.03 1015.96 1015.92 1015.89 1015.83 1015.72 1015.54 1015.28 1014.94 1014.52 1014.06 1013.58 1013.08 1012.60 1012.12 1011.65 1011.16 1010.65 1010.10 1009.50 1008.85 1008.16 1007.46 1006.76 1006.11 1005.51 1004.99 1004.55 1004.19 1003.88 1003.61 1003.37 1003.13 1002.89 1002.65 1002.42 1002.19
1016.81 1016.74 1016.60 1016.42 1016.24 1016.08 1015.95 1015.85 1015.77 1015.68 1015.56 1015.39 1015.15 1014.85 1014.48 1014.07 1013.63 1013.18 1012.73 1012.28 1011.83 1011.38 1010.89 1010.35 1009.76 1009.10 1008.39 1007.64 1006.88 1006.15 1005.46 1004.85 1004.33 1003.90 1003.54 1003.25 1003.00 1002.77 1002.53 1002.27 1002.00 1001.71 1001.43
1016.77 1016.74 1016.63 1016.48 1016.32 1016.15 1016.00 1015.86 1015.71 1015.54 1015.34 1015.09 1014.78 1014.43 1014.04 1013.63 1013.21 1012.80 1012.39 1011.99 1011.58 1011.15 1010.67 1010.13 1009.51 1008.81 1008.06 1007.27 1006.47 1005.69 1004.98 1004.34 1003.81 1003.36 1003.01 1002.71 1002.45 1002.21 1001.95 1001.67 1001.36 1001.03 1000.69
1016.83 1016.84 1016.77 1016.66 1016.51 1016.34 1016.16 1015.96 1015.73 1015.47 1015.18 1014.84 1014.46 1014.06 1013.64 1013.23 1012.83 1012.45 1012.08 1011.73 1011.36 1010.96 1010.50 1009.96 1009.33 1008.62 1007.85 1007.03 1006.19 1005.39 1004.64 1003.97 1003.40 1002.93 1002.53 1002.20 1001.90 1001.62 1001.32 1001.00 1000.65 1000.29 999.91
1016.96 1017.01 1016.98 1016.89 1016.75 1016.58 1016.35 1016.09 1015.79 1015.44 1015.05 1014.62 1014.18 1013.73 1013.29 1012.87 1012.49 1012.14 1011.81 1011.50 1011.16 1010.79 1010.35 1009.83 1009.21 1008.50 1007.71 1006.88 1006.03 1005.19 1004.41 1003.69 1003.07 1002.52 1002.05 1001.65 1001.27 1000.92 1000.56 1000.19 999.81 999.42 999.04
1017.11 1017.18 1017.18 1017.11 1016.98 1016.78 1016.52 1016.20 1015.82 1015.39 1014.92 1014.43 1013.93 1013.44 1012.99 1012.57 1012.20 1011.87 1011.57 1011.28 1010.98 1010.63 1010.20 1009.69 1009.09 1008.39 1007.61 1006.77 1005.91 1005.05 1004.22 1003.45 1002.74 1002.10 1001.53 1001.01 1000.53 1000.07 999.63 999.20 998.78 998.38 998.03
1017.24 1017.32 1017.33 1017.26 1017.12 1016.89 1016.59 1016.22 1015.79 1015.30 1014.78 1014.24 1013.71 1013.21 1012.74 1012.32 1011.96 1011.64 1011.36 1011.08 1010.78 1010.44 1010.03 1009.53 1008.94 1008.25 1007.48 1006.66 1005.79 1004.91 1004.04 1003.20 1002.40 1001.65 1000.95 1000.29 999.67 999.10 998.55 998.05 997.60 997.21 996.88
1017.30 1017.37 1017.37 1017.30 1017.13 1016.88 1016.55 1016.14 1015.67 1015.15 1014.61 1014.06 1013.51 1013.01 1012.54 1012.13 1011.77 1011.45 1011.16 1010.87 1010.56 1010.21 1009.80 1009.31 1008.73 1008.06 1007.32 1006.51 1005.65 1004.76 1003.85 1002.95 1002.06 1001.20 1000.36 999.56 998.80 998.09 997.44 996.87 996.38 995.99 995.72
Thickness
5801 5800 5798 5795 5791 5788 5784 5782 5779 5777 5775 5771 5768 5765 5763 5763 5763 5764 5764 5763 5762 5761 5759 5757 5756 5755 5753 5751 5750 5748 5745 5743 5743 5738 5735 5736 5739 5740 5740 5740 5739 5738 5737
5799 5798 5797 5795 5792 5788 5786 5783 5781 5778 5777 5774 5772 5769 5767 5765 5765 5765 5765 5764 5763 5762 5760 5758 5756 5755 5753 5751 5750 5748 5744 5743 5743 5737 5730 5726 5729 5734 5738 5738 5737 5737 5736
5801 5800 5798 5796 5794 5790 5788 5787 5783 5781 5779 5777 5774 5771 5767 5765 5764 5763 5764 5765 5764 5762 5761 5759 5757 5755 5753 5751 5750 5748 5745 5741 5741 5740 5733 5725 5721 5726 5731 5734 5735 5734 5733
5807 5804 5801 5798 5796 5794 5793 5789 5786 5783 5781 5779 5775 5770 5766 5762 5764 5764 5765 5765 5765 5763 5762 5760 5758 5756 5754 5752 5751 5750 5747 5744 5739 5739 5739 5736 5733 5725 5723 5727 5730 5732 5731
5812 5808 5806 5803 5801 5799 5795 5792 5788 5785 5783 5781 5778 5773 5769 5768 5767 5767 5765 5765 5765 5764 5763 5762 5760 5758 5756 5754 5752 5750 5748 5746 5742 5739 5737 5735 5734 5732 5725 5721 5724 5726 5728
5816 5812 5810 5806 5803 5801 5797 5793 5789 5786 5785 5782 5780 5776 5773 5770 5767 5766 5764 5764 5764 5764 5764 5763 5761 5759 5757 5755 5753 5751 5749 5747 5744 5742 5740 5736 5733 5729 5726 5722 5720 5720 5723
5816 5812 5808 5805 5803 5800 5797 5794 5790 5787 5786 5784 5782 5779 5776 5773 5770 5768 5766 5764 5763 5763 5763 5763 5761 5760 5759 5757 5755 5752 5750 5748 5746 5744 5742 5740 5738 5736 5731 5725 5720 5718 5720
5817 5815 5813 5810 5807 5803 5799 5795 5792 5789 5788 5785 5783 5781 5779 5776 5774 5772 5769 5767 5766 5765 5765 5763 5762 5760 5759 5757 5756 5753 5751 5750 5747 5745 5743 5740 5739 5737 5734 5729 5722 5716 5715
5817 5815 5814 5812 5809 5805 5801 5798 5794 5791 5788 5786 5784 5781 5780 5777 5775 5773 5772 5770 5768 5767 5765 5764 5762 5760 5759 5757 5756 5753 5751 5749 5747 5745 5743 5741 5739 5738 5736 5733 5728 5719 5712
5817 5816 5814 5812 5811 5808 5804 5801 5797 5793 5790 5788 5785 5783 5780 5779 5777 5774 5771 5770 5769 5768 5765 5763 5762 5760 5758 5757 5754 5752 5751 5748 5746 5744 5742 5740 5739 5737 5735 5732 5729 5725 5718
5817 5816 5814 5813 5810 5807 5804 5800 5796 5793 5791 5788 5785 5783 5780 5779 5777 5774 5772 5771 5769 5767 5765 5763 5761 5759 5757 5755 5753 5751 5749 5746 5744 5743 5741 5739 5738 5735 5733 5731 5727 5724 5719
5817 5816 5814 5811 5807 5804 5801 5799 5796 5793 5791 5789 5785 5782 5780 5778 5775 5773 5771 5770 5768 5766 5764 5762 5760 5758 5756 5754 5752 5749 5748 5745 5742 5741 5739 5737 5735 5732 5730 5728 5725 5722 5719
5813 5811 5809 5806 5803 5801 5800 5798 5796 5794 5792 5788 5784 5781 5778 5776 5774 5772 5770 5768 5766 5764 5762 5760 5757 5756 5755 5753 5751 5749 5746 5744 5741 5739 5736 5734 5731 5728 5726 5723 5721 5719 5717
5810 5807 5804 5802 5800 5799 5797 5796 5795 5794 5791 5787 5783 5779 5777 5775 5773 5771 5769 5767 5765 5762 5760 5758 5756 5755 5753 5752 5749 5747 5744 5742 5739 5737 5735 5732 5729 5726 5724 5721 5718 5715 5711
5804 5802 5799 5798 5797 5795 5794 5794 5792 5791 5788 5784 5781 5778 5777 5774 5771 5768 5766 5764 5762 5760 5758 5755 5753 5752 5751 5749 5746 5744 5741 5738 5736 5734 5732 5730 5728 5725 5722 5718 5714 5711 5706
5796 5796 5796 5794 5792 5791 5791 5790 5788 5787 5785 5781 5778 5776 5773 5771 5768 5766 5763 5760 5758 5756 5754 5752 5750 5748 5748 5747 5744 5741 5738 5735 5732 5729 5727 5726 5723 5721 5718 5715 5713 5709 5704
5790 5790 5791 5791 5790 5789 5788 5785 5785 5783 5780 5777 5774 5772 5769 5767 5765 5763 5759 5756 5754 5752 5750 5748 5746 5744 5744 5743 5740 5737 5734 5731 5728 5725 5722 5721 5720 5716 5713 5710 5708 5706 5703
5785 5785 5786 5785 5786 5787 5785 5784 5782 5779 5775 5772 5770 5768 5766 5763 5761 5758 5755 5753 5750 5747 5745 5743 5742 5740 5740 5738 5735 5733 5729 5726 5724 5721 5718 5715 5713 5711 5708 5704 5701 5699 5697
5780 5780 5781 5779 5780 5779 5779 5777 5774 5772 5769 5766 5764 5763 5761 5758 5755 5752 5750 5748 5745 5742 5740 5739 5737 5734 5734 5731 5728 5725 5722 5720 5718 5716 5713 5711 5708 5706 5703 5698 5694 5692 5691
5773 5773 5773 5773 5772 5771 5771 5768 5765 5763 5761 5760 5759 5758 5756 5752 5749 5747 5744 5742 5740 5737 5735 5733 5732 5730 5728 5726 5723 5720 5716 5713 5711 5710 5708 5706 5704 5701 5698 5693 5689 5686 5685
5766 5766 5765 5764 5763 5764 5763 5758 5756 5754 5755 5754 5753 5751 5749 5746 5743 5740 5738 5735 5733 5730 5728 5726 5725 5724 5723 5721 5718 5715 5711 5708 5705 5702 5701 5700 5698 5694 5691 5688 5685 5683 5680
5757 5758 5756 5755 5756 5757 5755 5750 5747 5748 5748 5746 5744 5742 5740 5739 5737 5733 5730 5728 5725 5721 5719 5717 5716 5716 5715 5713 5711 5709 5706 5703 5699 5696 5695 5693 5691 5688 5684 5682 5680 5676 5673
5747 5749 5747 5746 5746 5747 5745 5740 5739 5739 5739 5737 5734 5733 5732 5730 5727 5724 5721 5718 5716 5713 5710 5708 5706 5706 5705 5704 5703 5700 5697 5695 5692 5690 5688 5686 5682 5679 5677 5675 5672 5669 5665
5737 5738 5736 5735 5734 5735 5735 5732 5732 5731 5729 5726 5724 5723 5722 5719 5718 5715 5713 5709 5706 5703 5701 5698 5696 5696 5695 5694 5693 5690 5687 5685 5682 5679 5678 5676 5674 5671 5669 5667 5664 5661 5659
5726 5727 5725 5724 5723 5724 5724 5723 5722 5721 5718 5716 5715 5713 5711 5708 5706 5704 5702 5700 5698 5696 5692 5690 5688 5685 5684 5685 5684 5680 5678 5676 5673 5670 5666 5664 5662 5660 5659 5658 5656 5653 5651
5715 5714 5714 5713 5714 5714 5713 5713 5713 5711 5708 5705 5704 5703 5700 5698 5696 5693 5691 5689 5688 5687 5684 5682 5679 5678 5677 5676 5674 5672 5670 5667 5664 5659 5657 5655 5654 5652 5651 5649 5647 5645 5644